Vorticity
4 9 21 21 22 13 6 21 20 8 16 11 16 9 16 8 5 6 26 45 34 14 8 5 6 5 3 9 7 3 3 6 5 8 9 5 3 6 -3 3 3 9 3 5 7 6 7 3 12 15 13 16 17 13
8 15 13 9 17 20 24 17 7 7 13 5 7 14 13 9 5 3 12 40 39 30 10 7 3 3 3 4 5 7 15 3 8 6 9 8 5 3 -0 4 9 10 14 6 5 10 4 5 13 13 17 14 16 18
27 25 21 20 17 16 11 9 16 20 12 7 7 19 15 8 -0 8 2 22 47 28 11 9 2 5 6 -1 5 11 10 8 1 7 12 3 4 6 2 2 1 19 13 7 3 4 5 7 13 13 12 12 13 13
11 12 12 13 16 16 14 11 11 9 9 11 19 12 4 9 9 11 13 19 48 28 16 4 13 2 -2 13 13 6 7 9 2 7 9 12 6 9 0 5 7 7 13 12 8 6 5 9 6 6 7 9 7 5
5 4 8 6 8 15 16 18 16 15 14 14 11 10 13 15 2 14 65 8 22 23 27 9 4 5 12 19 8 15 10 9 4 8 6 14 8 5 5 3 5 3 3 10 4 6 5 2 5 5 5 4 4 3
8 8 10 12 14 15 15 14 17 12 10 7 5 8 12 7 -1 29 35 -3 10 47 36 -1 12 11 -10 44 29 6 15 13 16 4 2 13 12 8 4 11 6 1 5 -0 22 8 5 2 4 4 4 3 1 2
27 26 21 11 12 7 6 10 10 11 8 11 14 14 17 18 24 80 2 -15 16 45 45 36 -16 35 -11 20 43 24 3 6 20 11 1 1 14 9 2 -2 3 8 6 12 46 -2 -2 1 3 1 1 2 2 1
15 8 13 11 13 12 15 25 25 48 64 54 36 21 12 8 61 32 23 7 -20 2 24 22 41 71 -7 4 13 35 27 11 5 28 10 5 15 9 5 -2 6 10 5 -7 23 10 19 5 4 4 4 4 6 6
14 14 15 15 13 16 23 7 4 -2 41 72 53 1 49 82 7 24 13 -42 9 23 -8 -8 -27 46 -11 -11 35 21 10 5 26 4 1 6 12 15 8 -0 4 6 7 12 18 18 -1 9 8 8 7 4 5 9
14 18 10 7 8 21 6 19 3 17 21 15 32 -4 11 11 4 -5 -11 24 6 17 30 23 2 38 18 -23 -16 7 18 17 11 15 13 22 22 4 8 11 7 -13 5 13 5 1 38 15 10 15 11 6 22 25
12 14 13 13 22 11 4 9 12 13 -8 9 1 33 31 36 20 -5 -8 20 29 1 15 12 3 8 21 15 16 26 11 9 5 15 18 2 2 -2 42 14 -25 16 64 22 3 -14 -35 -7 2 4 8 16 25 5
-1 4 14 41 49 65 64 51 40 17 22 35 36 62 8 -30 -1 19 45 -11 8 -13 -45 -35 -0 17 19 22 -22 23 46 9 5 8 10 8 2 24 -44 38 23 1 -14 -7 3 19 26 13 12 14 6 4 48 33
58 64 50 -3 -18 -2 5 6 6 -26 24 60 -36 8 12 -4 1 7 5 -5 10 24 28 -3 -15 -15 -20 28 -15 3 32 24 2 19 -15 39 36 46 39 -7 15 13 14 14 14 10 11 10 21 27 16 -10 -14 11
-9 9 18 -9 -10 3 23 12 17 16 -0 -30 0 -3 -23 -10 35 23 -21 -13 35 27 25 14 0 13 38 31 12 -6 13 -14 31 14 3 -5 4 13 11 10 6 8 9 11 9 13 20 15 23 -24 11 9 12 12
-6 29 19 14 36 53 7 7 9 24 -3 7 2 -4 7 -21 6 15 23 12 22 8 7 20 20 9 5 5 10 2 13 8 -20 15 18 15 11 12 11 13 15 16 16 16 10 6 6 7 10 12 15 15 3 1
-6 -8 0 14 42 -53 -36 6 0 18 44 38 24 44 35 29 13 16 -7 -2 4 4 6 7 10 12 9 26 25 16 14 12 20 5 11 15 15 14 15 11 8 2 2 7 8 8 12 16 15 10 5 -4 -5 5
12 -2 -7 -6 1 8 15 -11 -15 2 1 1 -8 5 8 -3 -7 4 5 2 6 2 -2 3 17 15 19 12 6 9 13 10 1 -4 -1 6 11 12 10 9 11 10 8 10 14 10 4 4 2 4 3 -0 6 10
11 13 12 2 3 4 2 3 8 5 6 8 5 -5 -2 6 12 3 -7 -11 -11 -4 18 15 13 9 3 2 11 15 18 17 14 4 11 9 5 5 7 8 10 7 2 1 8 11 5 5 4 3 3 9 12 12
2 7 -4 12 12 -1 2 -6 -6 -4 4 4 0 6 16 17 12 8 9 15 19 20 16 18 15 13 11 11 11 7 5 5 6 8 9 8 5 2 2 2 4 7 10 11 8 5 3 4 7 10 12 13 12 10
16 10 -1 10 5 3 3 3 12 16 17 17 15 7 5 8 12 11 9 9 2 2 5 11 5 2 3 2 4 6 6 4 4 5 5 7 4 4 6 8 11 9 2 2 7 10 11 12 12 12 10 9 8 7
9 10 12 10 9 9 10 11 10 9 12 11 15 15 12 10 10 8 7 6 9 10 11 10 9 9 8 8 8 9 9 7 6 8 8 9 9 11 12 12 10 10 11 10 9 9 7 4 6 9 12 13 13 8
6 4 7 4 12 12 8 7 8 6 9 7 9 9 10 10 8 4 8 11 9 8 5 7 5 5 5 6 7 8 8 8 9 10 12 12 11 11 11 9 9 8 7 7 9 9 12 13 14 12 12 12 12 12
19 21 23 10 4 9 17 11 14 16 15 8 12 12 17 17 20 16 13 5 14 18 16 21 24 21 19 20 19 18 14 13 11 11 11 8 7 7 8 8 9 11 12 14 14 15 15 15 16 14 13 12 10 9
13 3 5 9 15 17 11 7 9 -6 11 12 -1 -1 8 2 3 3 21 3 -4 -9 16 28 17 13 14 13 12 11 11 11 12 13 13 13 13 16 16 16 16 17 17 16 15 13 10 9 8 7 7 7 6 6
5 8 8 11 5 0 3 1 4 6 10 6 7 10 6 1 -1 2 5 5 1 1 4 17 24 24 20 20 20 22 20 18 19 19 19 18 17 17 15 11 9 7 5 6 8 8 9 10 11 11 12 13 13 12
-0 -5 -4 -1 1 -3 -1 8 8 4 8 13 7 2 3 10 8 3 -0 4 6 12 16 21 20 16 14 11 10 8 9 9 10 9 9 8 8 7 8 9 10 12 12 13 13 12 11 11 12 13 15 16 16 16
4 2 3 1 2 0 6 7 5 8 11 2 -1 2 5 10 9 8 9 11 15 17 18 17 14 13 11 11 11 11 10 10 10 10 10 11 11 12 12 12 13 12 13 14 15 17 17 16 13 10 8 7 7 8
2 -0 4 5 3 4 8 7 8 9 5 2 4 9 11 8 10 14 18 22 23 20 17 16 15 15 15 14 13 13 13 13 13 14 14 16 18 19 20 20 19 17 16 13 11 10 9 11 15 22 28 31 33 32
6 4 3 2 9 11 8 11 12 9 7 11 11 11 12 21 24 23 16 13 15 18 21 22 22 21 20 20 20 21 21 21 21 20 19 18 17 15 12 11 10 9 10 17 28 38 37 29 23 22 22 23 24 24
5 4 10 12 10 13 11 8 10 11 12 12 18 22 19 16 16 19 21 24 26 24 22 21 20 19 18 18 17 16 14 13 12 11 10 10 10 11 14 24 36 38 28 16 14 14 15 16 16 16 17 18 21 23
13 14 16 13 8 6 9 11 12 14 21 17 14 11 15 21 24 24 26 22 18 17 15 14 13 13 11 10 9 9 9 10 11 15 20 29 38 36 23 14 11 14 17 18 17 15 14 14 14 15 16 18 20 23
13 7 8 9 12 10 11 12 20 16 9 7 11 28 23 24 26 23 20 17 13 12 10 8 8 9 11 13 15 18 21 29 37 35 22 14 11 13 13 11 12 13 13 11 9 9 11 12 13 14 16 17 18 23
11 12 10 10 11 12 16 20 14 7 5 27 25 20 22 20 16 12 10 9 10 11 13 15 16 17 19 29 36 31 22 15 14 13 12 11 10 11 12 13 13 13 13 13 12 11 10 11 11 12 12 15 17 17
Height
5251 5248 5247 5251 5260 5273 5286 5298 5311 5325 5340 5353 5366 5378 5390 5402 5411 5420 5429 5438 5457 5477 5496 5512 5524 5537 5550 5568 5581 5593 5598 5601 5607 5615 5622 5625 5633 5641 5646 5652 5656 5660 5664 5666 5668 5669 5672 5674 5673 5672 5671 5669 5668 5668
5266 5265 5267 5270 5276 5285 5294 5305 5317 5329 5341 5354 5365 5376 5388 5398 5408 5417 5425 5435 5451 5470 5486 5502 5518 5530 5544 5558 5571 5580 5593 5599 5603 5607 5612 5618 5628 5635 5641 5644 5649 5654 5657 5659 5663 5665 5666 5667 5666 5665 5664 5663 5663 5663
5276 5276 5278 5282 5288 5295 5303 5312 5322 5332 5343 5353 5364 5374 5386 5396 5407 5416 5425 5432 5443 5460 5480 5495 5511 5522 5535 5551 5561 5573 5583 5588 5593 5600 5610 5618 5625 5630 5634 5638 5642 5647 5650 5650 5655 5658 5660 5660 5660 5659 5659 5658 5658 5658
5283 5285 5287 5291 5296 5303 5310 5317 5326 5335 5344 5353 5362 5374 5385 5394 5404 5414 5423 5430 5440 5457 5473 5490 5502 5517 5530 5544 5558 5568 5577 5581 5588 5593 5601 5608 5618 5623 5627 5631 5634 5641 5642 5645 5646 5649 5653 5652 5652 5653 5653 5653 5653 5653
5289 5292 5295 5299 5304 5309 5315 5322 5329 5336 5344 5353 5363 5373 5383 5392 5402 5410 5419 5430 5441 5453 5468 5486 5502 5514 5528 5541 5553 5561 5570 5574 5580 5587 5595 5602 5609 5614 5617 5621 5625 5632 5636 5638 5640 5643 5641 5644 5644 5645 5646 5646 5646 5646
5293 5297 5301 5305 5309 5315 5320 5326 5333 5340 5347 5355 5363 5372 5380 5389 5398 5406 5418 5431 5442 5454 5471 5485 5499 5514 5529 5539 5548 5556 5562 5567 5573 5580 5588 5594 5599 5606 5609 5612 5621 5622 5626 5628 5631 5633 5634 5634 5636 5637 5637 5637 5637 5637
5296 5301 5306 5312 5317 5321 5326 5330 5334 5339 5344 5351 5359 5367 5375 5385 5394 5403 5418 5437 5451 5463 5476 5488 5501 5514 5531 5539 5543 5548 5554 5560 5567 5575 5584 5589 5592 5596 5602 5606 5612 5614 5617 5618 5619 5622 5624 5626 5627 5626 5627 5628 5626 5625
5302 5307 5312 5317 5321 5325 5329 5333 5335 5337 5337 5340 5350 5361 5372 5382 5392 5408 5425 5440 5451 5467 5481 5493 5505 5518 5528 5534 5539 5544 5550 5557 5563 5569 5576 5579 5584 5589 5593 5598 5603 5606 5609 5610 5610 5612 5614 5615 5615 5616 5616 5616 5614 5612
5309 5313 5318 5323 5327 5332 5336 5340 5343 5344 5340 5341 5349 5363 5372 5385 5401 5415 5431 5446 5459 5473 5481 5494 5507 5516 5522 5521 5532 5540 5546 5551 5556 5561 5566 5572 5575 5580 5587 5591 5595 5598 5600 5602 5601 5601 5600 5602 5605 5605 5604 5603 5601 5599
5318 5323 5328 5333 5337 5341 5346 5349 5353 5355 5355 5358 5368 5378 5390 5398 5410 5424 5441 5455 5468 5477 5485 5496 5508 5515 5518 5524 5531 5538 5542 5545 5548 5553 5558 5562 5567 5572 5577 5581 5584 5587 5586 5588 5590 5590 5589 5592 5593 5592 5591 5589 5588 5587
5331 5335 5340 5344 5348 5353 5356 5359 5365 5370 5373 5381 5388 5395 5403 5414 5426 5436 5451 5464 5473 5482 5491 5501 5507 5508 5517 5524 5529 5534 5538 5540 5543 5547 5552 5555 5558 5565 5568 5571 5573 5575 5571 5575 5577 5578 5580 5579 5580 5579 5578 5578 5578 5576
5342 5345 5349 5352 5355 5358 5361 5367 5376 5385 5393 5400 5406 5414 5422 5431 5442 5453 5461 5472 5482 5489 5492 5497 5504 5510 5516 5522 5526 5529 5529 5534 5536 5539 5544 5546 5550 5555 5552 5556 5558 5562 5562 5564 5566 5567 5568 5568 5567 5567 5566 5565 5563 5557
5356 5359 5364 5364 5368 5374 5382 5389 5394 5402 5409 5419 5426 5434 5441 5451 5459 5465 5473 5481 5485 5491 5497 5500 5507 5510 5515 5520 5522 5524 5525 5528 5530 5530 5535 5541 5543 5544 5545 5547 5548 5551 5553 5553 5554 5556 5556 5556 5555 5553 5554 5551 5548 5545
5381 5383 5385 5383 5387 5394 5400 5405 5411 5418 5423 5429 5440 5447 5452 5458 5466 5472 5477 5482 5488 5493 5496 5501 5505 5509 5510 5513 5516 5519 5522 5524 5524 5527 5531 5533 5533 5533 5535 5537 5539 5542 5544 5544 5544 5545 5544 5544 5542 5541 5540 5538 5535 5533
5406 5407 5406 5406 5406 5412 5416 5422 5426 5432 5438 5445 5450 5457 5462 5467 5473 5477 5481 5486 5488 5490 5494 5499 5503 5506 5508 5510 5513 5515 5517 5519 5521 5523 5526 5527 5529 5530 5531 5532 5533 5534 5534 5534 5534 5533 5532 5530 5529 5527 5525 5522 5520 5518
5423 5422 5425 5428 5428 5430 5433 5435 5439 5444 5450 5455 5460 5464 5468 5473 5477 5479 5484 5487 5490 5494 5498 5501 5503 5505 5506 5507 5509 5510 5512 5514 5516 5518 5519 5520 5520 5521 5522 5523 5523 5523 5523 5522 5522 5520 5518 5516 5514 5512 5510 5508 5504 5500
5436 5436 5436 5439 5442 5444 5447 5450 5454 5457 5461 5464 5466 5470 5473 5476 5479 5481 5484 5487 5491 5494 5497 5499 5500 5501 5503 5504 5505 5506 5508 5509 5510 5510 5511 5511 5513 5513 5513 5512 5512 5511 5510 5509 5508 5506 5504 5501 5500 5498 5495 5491 5487 5482
5444 5446 5447 5448 5450 5451 5454 5457 5460 5462 5463 5466 5469 5472 5475 5478 5482 5485 5487 5488 5490 5491 5493 5494 5495 5496 5497 5498 5499 5500 5500 5502 5502 5502 5502 5501 5500 5500 5499 5499 5498 5497 5496 5495 5493 5492 5489 5487 5484 5481 5477 5473 5469 5464
5450 5451 5452 5454 5456 5458 5460 5460 5462 5463 5466 5468 5470 5472 5474 5477 5480 5482 5483 5485 5487 5488 5489 5488 5489 5490 5491 5491 5492 5492 5492 5492 5492 5492 5492 5491 5491 5490 5489 5488 5486 5485 5483 5482 5480 5477 5474 5470 5466 5463 5459 5456 5452 5447
5451 5453 5455 5456 5458 5459 5461 5462 5464 5465 5466 5468 5470 5472 5474 5476 5477 5479 5480 5481 5482 5483 5483 5483 5483 5484 5484 5485 5484 5484 5484 5484 5483 5482 5481 5480 5479 5478 5476 5474 5473 5471 5469 5466 5464 5460 5456 5453 5449 5445 5441 5438 5433 5429
5452 5453 5455 5456 5457 5461 5461 5462 5463 5463 5465 5466 5467 5468 5470 5471 5472 5473 5474 5475 5477 5476 5476 5477 5477 5477 5477 5476 5477 5476 5475 5474 5472 5472 5471 5469 5467 5465 5463 5461 5458 5455 5453 5450 5447 5444 5440 5436 5432 5428 5423 5418 5414 5409
5452 5453 5454 5456 5457 5459 5460 5460 5461 5462 5463 5463 5464 5464 5464 5465 5465 5466 5466 5467 5466 5466 5467 5467 5467 5466 5466 5465 5464 5463 5462 5460 5459 5457 5456 5454 5452 5450 5447 5444 5442 5439 5436 5432 5429 5425 5422 5417 5413 5408 5404 5399 5394 5389
5453 5454 5455 5457 5457 5456 5456 5457 5458 5458 5460 5460 5460 5460 5460 5460 5459 5459 5458 5457 5457 5457 5456 5456 5454 5453 5452 5451 5449 5448 5446 5445 5443 5442 5440 5438 5436 5433 5431 5428 5425 5422 5418 5414 5410 5406 5402 5398 5393 5389 5384 5379 5374 5369
5456 5456 5456 5456 5456 5456 5457 5457 5457 5457 5457 5456 5456 5456 5455 5454 5453 5452 5451 5450 5447 5446 5444 5442 5441 5439 5438 5436 5434 5433 5431 5429 5427 5426 5423 5421 5419 5417 5414 5411 5408 5405 5401 5397 5394 5390 5386 5381 5376 5371 5366 5360 5355 5349
5457 5456 5458 5457 5457 5457 5457 5457 5456 5456 5454 5453 5452 5451 5449 5448 5445 5443 5441 5439 5436 5433 5431 5429 5427 5424 5422 5420 5418 5417 5415 5414 5412 5410 5408 5405 5403 5400 5398 5395 5392 5389 5385 5381 5377 5373 5368 5363 5357 5352 5346 5339 5333 5327
5454 5455 5455 5455 5454 5454 5453 5452 5451 5450 5449 5448 5446 5445 5442 5440 5437 5434 5431 5428 5425 5423 5420 5417 5414 5412 5409 5407 5405 5403 5402 5400 5398 5396 5394 5391 5389 5386 5383 5380 5376 5372 5368 5363 5359 5354 5349 5344 5338 5331 5324 5318 5311 5304
5451 5451 5451 5451 5451 5450 5449 5447 5446 5444 5442 5440 5437 5435 5432 5429 5425 5422 5418 5414 5411 5408 5405 5403 5400 5398 5396 5393 5392 5390 5388 5385 5383 5381 5378 5375 5372 5369 5366 5362 5358 5354 5350 5345 5340 5335 5330 5323 5317 5310 5303 5295 5287 5279
5448 5448 5448 5447 5446 5445 5443 5441 5439 5437 5434 5432 5429 5425 5422 5418 5414 5410 5405 5401 5397 5394 5391 5389 5386 5384 5381 5379 5377 5375 5373 5370 5368 5365 5363 5360 5356 5353 5349 5345 5341 5337 5333 5328 5323 5317 5311 5305 5297 5290 5281 5272 5263 5253
5444 5444 5444 5442 5440 5438 5436 5434 5431 5428 5425 5421 5418 5413 5409 5405 5400 5395 5392 5388 5384 5380 5377 5375 5373 5371 5368 5366 5363 5361 5359 5357 5354 5351 5349 5346 5343 5340 5335 5331 5327 5322 5317 5311 5306 5300 5294 5287 5280 5272 5264 5255 5244 5234
5438 5437 5435 5433 5431 5428 5426 5423 5420 5417 5413 5409 5405 5400 5396 5391 5387 5383 5378 5375 5371 5368 5366 5364 5362 5360 5358 5356 5353 5351 5348 5346 5343 5340 5337 5334 5330 5326 5322 5317 5313 5308 5304 5299 5293 5287 5281 5274 5266 5258 5249 5239 5228 5217
5430 5428 5426 5423 5421 5418 5415 5412 5409 5405 5401 5397 5393 5389 5384 5379 5374 5370 5367 5364 5362 5360 5358 5355 5353 5352 5349 5347 5345 5342 5339 5336 5332 5329 5325 5322 5318 5314 5311 5308 5304 5300 5295 5289 5284 5278 5272 5265 5257 5248 5238 5228 5217 5205
5422 5420 5417 5414 5412 5410 5406 5402 5398 5394 5390 5386 5381 5376 5372 5368 5364 5361 5359 5357 5355 5353 5351 5348 5346 5343 5341 5338 5335 5331 5328 5325 5322 5319 5317 5314 5312 5308 5305 5301 5297 5292 5287 5282 5277 5271 5264 5257 5249 5240 5231 5221 5210 5199
5413 5411 5408 5406 5403 5400 5397 5394 5390 5386 5381 5375 5370 5367 5363 5360 5357 5355 5353 5350 5348 5345 5343 5340 5338 5335 5332 5329 5326 5324 5322 5320 5318 5315 5313 5310 5306 5303 5299 5295 5291 5286 5281 5275 5269 5263 5257 5250 5243 5235 5227 5217 5207 5196